Location: Alto del Carmen
(28.4445°N, 16.2754°W)
Time: 16:30:42
(UTC+00:00)

Daily predictions for brighter satellites

Satellite Brightness Start Highest point End
(mag) Time Altitude Azimuth Time Altitude Azimuth Time Altitude Azimuth
Nadezhda 3 Rocket 4.2 18:50:07 10° N 18:56:28 86° W 19:02:48 10° S
OAO 2 Rocket 4.4 18:56:01 10° SSW 19:00:20 31° SSE 19:04:41 10° E
CORIOLIS 4.3 18:55:33 10° SSE 19:00:57 83° WSW 19:06:19 10° NNW
Atlas Centaur 2 1.7 18:57:09 10° WSW 19:01:21 87° SSE 19:06:40 10° ENE
CZ-4 R/B 2.4 18:59:28 10° SE 19:02:49 26° ENE 19:06:12 10° NNE
Cosmos 2333 Rocket 3.7 18:57:45 10° NW 19:03:04 42° WSW 19:08:20 10° S
SL-8 Rocket 4.0 18:58:12 10° S 19:04:27 70° E 19:10:43 10° N
SKYMED 2 3.6 19:03:50 10° NNE 19:08:11 90° W 19:12:31 10° SSW
CZ-4C R/B 3.2 19:01:24 10° NNW 19:09:15 88° WSW 19:17:45 10° SSE
USA 234 3.7 19:03:22 10° ESE 19:09:26 42° NE 19:15:29 10° NNW
GPS 2-05 Rocket1 4.2 19:07:59 10° S 19:09:42 16° SSE 19:11:26 10° ESE
Cosmos-2242 3.1 19:10:07 10° N 19:14:18 51° E 19:18:25 10° SSE
Cosmos 2082 4.0 19:09:13 10° SSW 19:14:47 72° WNW 19:20:24 10° NNE
YAOGAN 1 3.3 19:12:13 10° SE 19:15:57 29° ENE 19:19:42 10° NNE
SL-16 R/B 3.2 19:11:29 10° N 19:15:57 23° ENE 19:20:23 10° ESE
Iridium 96 3.5 19:18:45 10° N 19:21:13 78° E 19:23:51 10° S
Cosmos 1328 3.7 19:17:29 10° S 19:21:29 83° E 19:25:31 10° N
Cosmos 2297 Rocket 4.0 19:17:49 10° SW 19:22:42 30° WNW 19:27:37 10° N
CZ-4 R/B 4.3 19:25:24 10° SSE 19:29:29 70° ENE 19:33:35 10° N
Cosmos 2263 Rocket 3.2 19:29:26 10° SSE 19:33:52 25° ESE 19:36:32 18° ENE
Cosmos 1980 4.1 19:29:37 10° NNW 19:35:15 67° WSW 19:40:52 10° S
Cosmos 2227 Rocket 4.3 19:31:00 10° WSW 19:35:38 26° WNW 19:40:16 10° N
Cosmos 2251 Rocket 4.2 19:30:58 10° N 19:35:39 31° ENE 19:40:20 10° SE
Cosmos 1356 Rocket 4.3 19:32:24 10° NNE 19:35:52 26° E 19:39:22 10° SE
NOAA 11 4.3 19:31:25 10° SSE 19:36:42 51° ENE 19:42:00 10° N
FengYun 1-2 T 4.4 19:31:26 10° S 19:37:02 80° WSW 19:42:42 10° NNW
H-2A DEB 3.9 19:33:13 10° WSW 19:37:52 55° SSE 19:39:18 23° E
DMSP B5D1-3 4.4 19:33:00 10° NNE 19:38:05 71° ESE 19:43:09 10° S
Meteor 2-10 Rocket 3.4 19:35:51 10° N 19:41:02 78° E 19:46:03 10° S
ADEOS Rocket 3.5 19:37:46 10° NNE 19:44:41 58° ESE 19:52:08 10° S
NOAA 15 4.5 19:40:43 10° SSE 19:45:56 75° ENE 19:51:12 10° N
SL-08 R/B 4.5 19:39:53 10° S 19:46:08 82° E 19:52:31 10° N
Cosmos 1339 Rocket 4.5 19:45:24 10° N 19:51:31 84° W 19:57:42 10° S
H-2A R/B 2.8 19:49:18 10° WSW 19:51:51 36° S 19:59:29 10° ESE
STARLINK-67 4.1 19:49:49 10° S 19:51:15 22° SSE 19:51:15 22° SSE
FUSE 4.2 19:53:14 10° WSW 19:58:31 61° S 20:01:12 28° ESE
Cosmos 1842 Rocket 3.8 19:56:04 10° N 20:00:21 44° E 20:04:38 10° SSE
Cosmos 1939 Rocket 2.6 19:57:58 10° SSE 20:01:50 86° E 20:05:47 10° N
Cosmos 1371 Rocket 4.3 19:57:54 10° S 20:02:42 41° ESE 20:03:53 36° ENE
CSL-04 Debris 4.2 19:59:56 10° S 20:05:18 80° WSW 20:10:42 10° NNW
CZ-3C R/B 3.6 19:18:24 10° W 20:07:22 49° SSW 20:12:08 15° SE
SWIFT 3.8 20:04:34 10° WSW 20:08:10 27° S 20:09:30 23° SSE
Mugunghwa Rocket 4.1 20:03:10 10° W 20:09:45 78° S 20:13:11 33° E
OAO 3 Rocket 3.0 20:10:11 10° WSW 20:14:50 90° NNW 20:15:41 59° ENE
Cosmos 1934 Rocket 4.2 20:09:11 10° SSE 20:14:54 43° E 20:15:51 40° ENE
NOSS 3-2 (C) 4.0 20:12:05 10° S 20:16:17 32° SE 20:16:17 32° SE
ATLAS 3B R/B 4.3 20:14:18 10° SSE 20:16:03 15° SE 20:16:03 15° SE
Cosmos 1000 Rocket 4.5 20:16:11 10° N 20:22:15 55° E 20:28:22 10° SSE
CZ-2D R/B 4.3 20:19:25 10° S 20:23:03 44° W 20:26:43 10° NNW
FALCON 9 R/B 3.0 20:04:15 10° WSW 20:25:15 89° NNW 20:27:43 45° ENE
Cosmos 1535 Rocket 4.4 20:24:11 10° S 20:30:19 62° E 20:32:03 46° NE
Ariane Rocket 2.8 20:25:23 10° SSE 20:30:25 74° ENE 20:35:28 10° N
Cosmos 1624 Rocket 3.8 20:25:24 10° S 20:30:41 72° ESE 20:30:56 71° E
NOSS 3-2 (A) 3.1 20:30:38 10° SSW 20:36:08 90° SE 20:37:13 61° NNE
Haruka 3.0 20:34:04 10° W 20:37:32 65° N 20:37:37 65° N
CZ-4 R/B 4.4 20:35:17 10° SW 20:37:46 16° W 20:40:17 10° WNW
CENTAUR R/B 3.5 20:33:18 10° S 20:35:51 25° SSE 20:35:51 25° SSE
OAO 2 Rocket 3.5 20:39:59 10° WSW 20:44:18 64° WNW 20:44:18 64° WNW
Cosmos 1076 Rocket 4.3 20:41:05 10° SSW 20:44:33 49° WSW 20:44:33 49° WSW
Cosmos 2056 Rocket 3.5 20:40:48 10° SSW 20:45:43 78° WSW 20:45:43 78° WSW
In-Cosmos 22 Rocket 4.1 20:43:04 10° S 20:48:42 86° SSW 20:48:42 86° SSW
Atlas Centaur 2 2.2 20:45:32 10° W 20:49:47 64° NW 20:49:47 64° NW
USA 234 4.3 20:46:14 10° SSE 20:52:18 41° SW 20:58:24 10° WNW
DASH 4.3 20:55:44 10° SW 20:58:12 36° S 20:58:12 36° S
SL-16 R/B 3.7 20:54:58 10° NW 21:00:02 35° WSW 21:05:05 10° SSW
Cosmos 2263 Rocket 3.7 21:12:41 10° SW 21:17:33 31° WNW 21:18:19 30° NW
H-2A R/B 4.3 19:43:37 10° SW 21:25:02 52° S 21:26:16 50° SSE
